DELTA 1 DEB, 3416

Orbit data source: Space-Track

DELTA 1 DEB, 3416 is space debris in SSO originally from a launch on Fri, 16 Aug 1968 UTC launched from the Air Force Western Test Range (AFWTR). Debris objects in space refer to the collection of defunct objects orbiting the Earth. Examples of debris include non-operational satellites, rocket bodies, and fragments generated from explosions, collisions, or faulty payload assembly.

Loading next visibility...
Identifier
3416, 1968-069C
Orbit
SSO
Last TLE update
2 days ago
Origin
Manufacturer
Unknown
Mission
Spacecraft
Bus & Motor
Unknown
Mass
Unknown
Launch date (UTC)
1968-08-16 (57 years ago)
Launch vehicle
Unknown
Launch site
Air Force Western Test Range (AFWTR)
Object type
Payload
Rocket body
Debris
Shape & HBR
Unknown
Radar Cross Section
Small (<0.1 m²)

Expand to show TLE details & history

TLE from 2 days ago
0 DELTA 1 DEB
1 03416U 68069C   25185.60898057 -.00000035  00000-0  56132-4 0  9997
2 03416 101.6770 310.9443 0119386 119.4773   8.8119 12.67140106630242
Epoch: 2025-07-04T14:36Z
TLE epoch observation values (Epoch: 2025-07-04T14:36:55.921Z)
Latitude
50.12681°
Longitude
3.10345°
Altitude
1,309.705 km
Speed
7.249 km/s
True Right ascension
09h 40m 46s
True Declination
49° 58' 11"
Sunlit
Object was in daylight at epoch
Visualization orbit readout
Latitude
7.57703°
Longitude
-7.89797°
Altitude
1,342.938 km
Speed
7.211 km/s
Apparent Right ascension
08h 02m 07s
Apparent Declination
-14° 18' 33"
Sunlit
Object is in daylight
Visualization observer readout
Local Sidereal Time
18:35:29
Azimuth
317.356° NNW
Elevation
-58.137°
Doppler factor
1
Orbital elements
Apogee altitude
1,483.885 km
Perigee altitude
1,298.377 km
Semi-major axis
7,769.268 km
Eccentricity
0.01194
Inclination
101.677°
RAAN
310.9443°
Arg. of periapsis
119.4773°
True anomaly
Unknown
Mean anomaly
8.8119°
Eccentric anomaly
Unknown
Mean motion
3.16937 °/min
Orbital period
113.59 mins
BSTAR
0.000056132
Loading maneuver chart data...
Loading SW <> Apogee altitude chart data...
Loading historical data...
Loading historical data...
Loading historical data...
Loading historical data...
Loading historical data...
Loading historical data...
Loading historical data...

DELTA 1 DEB Visibility forecast

Observer location: undefined°, undefined°

Span
Click to sort rows by Start time (UTC) header in descending order
Start Az.
Max El. time (UTC)
Max El. Az.
Max El.
End time (UTC)
End Az.
15 mins2025-07-06 07:43:57.439Z148.073° SSE2025-07-06 07:50:57.439Z88.62° E42.581°2025-07-06 07:58:57.439Z348.065° N
10 mins2025-07-06 09:38:57.439Z223.11° SW2025-07-06 09:43:57.439Z269.825° W22.254°2025-07-06 09:48:57.439Z312.877° NW
7 mins2025-07-06 19:41:57.439Z67.672° E2025-07-06 19:44:57.439Z94.565° ESE16.229°2025-07-06 19:48:57.439Z127.623° SE
13 mins2025-07-06 21:30:57.439Z15.899° NNE2025-07-06 21:36:57.439Z323.027° NNW44.859°2025-07-06 21:43:57.439Z202.086° SSW
7 mins2025-07-06 23:24:57.439Z333.098° NNW2025-07-06 23:27:57.439Z305.554° NW17.105°2025-07-06 23:31:57.439Z272.124° WNW
5 mins2025-07-07 06:32:57.439Z99.258° ESE2025-07-07 06:37:57.439Z53.731° ENE22.629°2025-07-07 06:37:57.439Z53.731° ENE
|